Location: Clanezzo
(45.7500°N, 9.6000°E)
Time: 03:25:12
(UTC+00:00)

ESTCUBE 1 - Pass Details

Date: 01 July 2022
Orbit: 646 x 657 km, 97.9° (Epoch: 13 August)

Event Time Altitude Azimuth Distance (km) Brightness Sun altitude
Exits shadow 19:56:53 - 106° (ESE) 2,474 ? -6.5°
Reaches altitude 10° 19:58:33 10° 90° (E) 2,049 ? -6.7°
Maximum altitude 20:00:50 14° 60° (ENE) 1,802 ? -7.0°
Drops below altitude 10° 20:03:06 10° 29° (NNE) 2,059 ? -7.3°
Sets 20:06:18 0° 4° (N) 2,977 ? -7.7°
